Weslaco, TX

11:20 PM CST on February 09, 2016 (GMT -0600)
Weslaco

Weather History for KT65 - August, 2013

Change the Weather History Date:

Friday, August 16, 2013

  Actual Average (KMFE) Record (KMFE)
Temperature  
Mean Temperature 88 °F 88 °F  
Max Temperature 100 °F 99 °F 104 °F (2014)
Min Temperature 77 °F 77 °F 64 °F (1972)
Degree Days  
Heating Degree Days 0 0  
Month to date heating degree days 0  
Since 1 June heating degree days 0  
Since 1 July heating degree days 0  
Cooling Degree Days 23 23  
Month to date cooling degree days 367  
Year to date cooling degree days 2924  
Since 1 June cooling degree days 1669  
Growing Degree Days 38 (Base 50)    
Moisture  
Dew Point 70 °F    
Average Humidity 61    
Maximum Humidity 86    
Minimum Humidity 29    
Precipitation  
Precipitation 0.00 in 0.06 in 1.13 in (2003)
Month to date precipitation 0.78  
Year to date precipitation 12.14  
Sea Level Pressure  
Sea Level Pressure 29.92 in    
Wind  
Wind Speed 5 mph (SE)    
Max Wind Speed 15 mph    
Max Gust Speed 26 mph    
Visibility 10 miles    
Events Thunderstorm    
T = Trace of Precipitation, MM = Missing Value Source: NWS Daily Summary

Daily Weather History Graph

Daily Weather History Graph

Search for Another Location

Airport or City:

Trip Planner

Search our weather history database for the weather conditions in past years. The results will help you decide how hot, cold, wet, or windy it might be!

Date:

Astronomy

Aug. 16, 2013 Rise Set
Actual Time 7:04 AM CDT 8:06 PM CDT
Civil Twilight 6:40 AM CDT 8:30 PM CDT
Nautical Twilight 6:12 AM CDT 8:59 PM CDT
Astronomical Twilight 5:43 AM CDT 9:28 PM CDT
Moon 4:16 PM CDT (8/16) 2:19 AM CDT (8/16)
Length of Visible Light 13h 49m
Length of Day
13h 01m
Waxing Gibbous, 75% of the Moon is Illuminated
Aug 16
Waxing Gibbous
Aug 20
Full
Aug 28
Last Quarter
Sep 5
New
Sep 12
First Quarter

Hourly Weather History & Observations

Time (CDT) Temp. Heat Index Dew Point Humidity Pressure Visibility Wind Dir Wind Speed Gust Speed Precip Events Conditions
12:15 AM 81.9 °F 87.3 °F 73.4 °F 75% 29.97 in 10.0 mi SSE 8.1 mph - N/A   Clear
12:55 AM 81.5 °F 86.5 °F 73.0 °F 75% 29.96 in 10.0 mi SSE 5.8 mph - N/A   Clear
1:15 AM 81.0 °F 85.8 °F 73.0 °F 77% 29.96 in 10.0 mi South 4.6 mph - N/A   Clear
1:35 AM 80.6 °F 85.4 °F 73.4 °F 79% 29.95 in 10.0 mi South 4.6 mph - N/A   Clear
1:55 AM 80.1 °F 84.2 °F 73.0 °F 79% 29.95 in 10.0 mi South 4.6 mph - N/A   Clear
2:15 AM 79.7 °F - 73.0 °F 80% 29.94 in 10.0 mi South 4.6 mph - N/A   Clear
2:35 AM 79.2 °F - 72.9 °F 81% 29.94 in 10.0 mi Calm Calm - N/A   Clear
2:55 AM 78.8 °F - 72.7 °F 81% 29.93 in 10.0 mi South 4.6 mph - N/A   Clear
3:15 AM 78.8 °F - 72.7 °F 81% 29.93 in 10.0 mi South 4.6 mph - N/A   Clear
3:35 AM 78.4 °F - 72.9 °F 83% 29.93 in 10.0 mi South 4.6 mph - N/A   Clear
3:55 AM 78.3 °F - 72.9 °F 83% 29.93 in 10.0 mi South 3.5 mph - N/A   Clear
4:15 AM 78.1 °F - 72.9 °F 84% 29.92 in 10.0 mi South 4.6 mph - N/A   Clear
4:35 AM 78.1 °F - 72.9 °F 84% 29.92 in 10.0 mi South 4.6 mph - N/A   Scattered Clouds
4:55 AM 77.9 °F - 72.9 °F 84% 29.92 in 10.0 mi South 4.6 mph - N/A   Clear
5:15 AM 77.9 °F - 73.0 °F 85% 29.92 in 10.0 mi Calm Calm - N/A   Clear
5:35 AM 77.9 °F - 73.0 °F 85% 29.92 in 10.0 mi South 3.5 mph - N/A   Scattered Clouds
5:55 AM 77.5 °F - 72.9 °F 85% 29.91 in 10.0 mi Calm Calm - N/A   Scattered Clouds
6:15 AM 77.5 °F - 72.9 °F 85% 29.91 in 10.0 mi Calm Calm - N/A   Clear
6:35 AM 77.4 °F - 72.9 °F 86% 29.92 in 10.0 mi Calm Calm - N/A   Clear
6:55 AM 77.5 °F - 72.7 °F 85% 29.91 in 7.0 mi SSE 3.5 mph - N/A   Scattered Clouds
7:15 AM 77.0 °F - 72.0 °F 84% 29.92 in 10.0 mi Calm Calm - N/A   Scattered Clouds
7:35 AM 77.0 °F - 72.5 °F 86% 29.92 in 7.0 mi Calm Calm - N/A   Scattered Clouds
7:55 AM 78.3 °F - 72.9 °F 83% 29.92 in 7.0 mi Calm Calm - N/A   Scattered Clouds
8:15 AM 79.7 °F - 73.4 °F 81% 29.93 in 7.0 mi Calm Calm - N/A   Clear
8:35 AM 81.3 °F 86.8 °F 73.8 °F 78% 29.94 in 7.0 mi Calm Calm - N/A   Clear
8:55 AM 83.7 °F 90.4 °F 73.9 °F 72% 29.95 in 7.0 mi SSE 4.6 mph - N/A   Clear
9:15 AM 85.1 °F 91.8 °F 73.2 °F 67% 29.95 in 7.0 mi SSW 3.5 mph - N/A   Clear
9:35 AM 86.0 °F 93.4 °F 73.4 °F 66% 29.95 in 10.0 mi South 6.9 mph - N/A   Clear
9:55 AM 87.8 °F 94.7 °F 72.1 °F 60% 29.95 in 7.0 mi South 6.9 mph - N/A   Clear
10:15 AM 88.9 °F 94.7 °F 71.1 °F 55% 29.95 in 10.0 mi SSE 5.8 mph - N/A   Clear
10:35 AM 90.0 °F 95.0 °F 69.8 °F 51% 29.95 in 7.0 mi South 5.8 mph - N/A   Clear
10:55 AM 90.5 °F 96.5 °F 70.5 °F 52% 29.95 in 10.0 mi East 3.5 mph - N/A   Clear
11:15 AM 92.7 °F 98.3 °F 70.0 °F 47% 29.96 in 10.0 mi SE 5.8 mph - N/A   Scattered Clouds
11:35 AM 92.5 °F 97.4 °F 69.3 °F 46% 29.96 in 10.0 mi ESE 4.6 mph - N/A   Scattered Clouds
11:55 AM 94.3 °F 97.7 °F 66.2 °F 40% 29.95 in 10.0 mi SSE 5.8 mph - N/A   Clear
12:15 PM 94.8 °F 98.7 °F 66.9 °F 40% 29.95 in 10.0 mi ENE 4.6 mph - N/A   Clear
12:35 PM 96.3 °F 100.2 °F 66.9 °F 38% 29.94 in 10.0 mi South 4.6 mph - N/A   Scattered Clouds
12:55 PM 96.1 °F 99.3 °F 66.2 °F 37% 29.94 in 10.0 mi Calm Calm - N/A   Scattered Clouds
1:15 PM 96.8 °F 99.0 °F 63.9 °F 34% 29.93 in 10.0 mi Calm Calm - N/A   Scattered Clouds
1:35 PM 98.1 °F 100.7 °F 64.2 °F 33% 29.92 in 10.0 mi SE 4.6 mph - N/A   Scattered Clouds
1:55 PM 98.8 °F 99.7 °F 61.7 °F 29% 29.92 in 10.0 mi SSE 9.2 mph - N/A   Clear
2:15 PM 99.0 °F 101.1 °F 63.5 °F 31% 29.91 in 10.0 mi East 6.9 mph - N/A   Clear
2:35 PM 99.7 °F 101.2 °F 61.7 °F 29% 29.90 in 10.0 mi East 8.1 mph - N/A   Clear
2:55 PM 98.6 °F 100.5 °F 63.0 °F 31% 29.90 in 10.0 mi NE 9.2 mph - N/A   Clear
3:15 PM 98.8 °F 101.4 °F 63.9 °F 32% 29.89 in 10.0 mi ENE 5.8 mph - N/A   Scattered Clouds
3:35 PM 99.0 °F 101.1 °F 63.5 °F 31% 29.88 in 10.0 mi East 4.6 mph - N/A   Scattered Clouds
3:55 PM 98.8 °F 102.5 °F 66.0 °F 34% 29.88 in 10.0 mi East 8.1 mph 16.1 mph N/A   Mostly Cloudy
4:15 PM 97.0 °F 100.4 °F 66.2 °F 36% 29.88 in 10.0 mi East 15.0 mph 26.5 mph N/A   Mostly Cloudy
4:35 PM 93.0 °F 96.9 °F 67.8 °F 43% 29.89 in 10.0 mi East 13.8 mph 25.3 mph N/A   Mostly Cloudy
4:55 PM 93.6 °F 96.9 °F 66.9 °F 41% 29.90 in 10.0 mi East 8.1 mph - N/A   Overcast
5:15 PM 90.3 °F 94.3 °F 68.4 °F 48% 29.90 in 10.0 mi ENE 13.8 mph 20.7 mph N/A   Overcast
5:35 PM 89.1 °F 93.7 °F 69.6 °F 52% 29.89 in 10.0 mi East 8.1 mph - N/A Thunderstorm Mostly Cloudy
5:55 PM 93.0 °F 96.4 °F 66.6 °F 42% 29.89 in 10.0 mi East 11.5 mph 16.1 mph N/A   Mostly Cloudy
6:15 PM 94.3 °F 98.7 °F 68.0 °F 42% 29.90 in 10.0 mi SSW 6.9 mph - N/A   Scattered Clouds
6:35 PM 90.5 °F 96.5 °F 70.5 °F 52% 29.89 in 10.0 mi South 8.1 mph - N/A   Scattered Clouds
6:55 PM 90.5 °F 96.0 °F 70.2 °F 51% 29.88 in 10.0 mi SSE 8.1 mph - N/A   Clear
7:15 PM 91.4 °F 94.9 °F 67.5 °F 45% 29.89 in 10.0 mi SE 11.5 mph 16.1 mph N/A   Clear
7:35 PM 90.3 °F 94.3 °F 68.0 °F 48% 29.89 in 10.0 mi ESE 12.7 mph 18.4 mph N/A   Clear
7:55 PM 89.4 °F 93.1 °F 68.2 °F 49% 29.89 in 10.0 mi ESE 9.2 mph 16.1 mph N/A   Clear
8:15 PM 88.3 °F 92.0 °F 68.2 °F 51% 29.90 in 10.0 mi ESE 9.2 mph - N/A   Clear
8:35 PM 87.8 °F 91.8 °F 68.5 °F 53% 29.90 in 10.0 mi SE 6.9 mph - N/A   Clear
8:55 PM 87.3 °F 91.6 °F 69.4 °F 55% 29.91 in 10.0 mi SE 5.8 mph - N/A   Clear
9:15 PM 86.4 °F 91.1 °F 70.0 °F 58% 29.91 in 10.0 mi SE 6.9 mph - N/A   Clear
9:35 PM 85.6 °F 89.7 °F 69.3 °F 58% 29.92 in 10.0 mi ESE 6.9 mph - N/A   Clear
9:55 PM 85.1 °F 89.4 °F 69.8 °F 60% 29.93 in 10.0 mi SE 5.8 mph - N/A   Clear
10:15 PM 84.6 °F 89.1 °F 70.3 °F 62% 29.94 in 10.0 mi ESE 4.6 mph - N/A   Clear
10:35 PM 83.8 °F 88.9 °F 71.6 °F 66% 29.94 in 10.0 mi SE 6.9 mph - N/A   Clear
10:55 PM 83.3 °F 88.4 °F 72.0 °F 68% 29.95 in 10.0 mi SE 5.8 mph - N/A   Clear
11:15 PM 82.8 °F 87.9 °F 72.1 °F 70% 29.96 in 10.0 mi SE 6.9 mph - N/A   Clear
11:35 PM 82.0 °F 87.2 °F 72.5 °F 73% 29.96 in 10.0 mi SE 5.8 mph - N/A   Clear
11:55 PM 81.9 °F 86.8 °F 72.5 °F 73% 29.96 in 10.0 mi SE 6.9 mph - N/A   Clear